BREEZE-M DEB, 38606

Orbit data source: Space-Track

BREEZE-M DEB, 38606 is space debris in HEO originally from a launch on Fri, 14 Mar 2008 UTC launched from the Tyuratam Missile And Space Complex (TTMTR). Debris objects in space refer to the collection of defunct objects orbiting the Earth. Examples of debris include non-operational satellites, rocket bodies, and fragments generated from explosions, collisions, or faulty payload assembly.

Loading next visibility...
Identifier
38606, 2008-011BD
Orbit
HEO
Country
Flag of CISCIS
Related business
Manufacturer
Unknown
Mission
Spacecraft
Bus & Motor
Unknown
Mass
Unknown
Launch date (UTC)
2008-03-14 (18 years ago)
Launch vehicle
Unknown
Launch site
Tyuratam Missile And Space Complex (TTMTR)
Object type
Payload
Rocket body
Debris
Shape & HBR
Unknown shape, 0.3 m
Radar Cross Section
Medium (>0.1 m² and <1 m²)

Expand to show TLE details & history
Last TLE update: 6 days ago

TLE from 6 days ago
0 BREEZE-M DEB
1 38606U 08011BD  26167.40592344  .00000497  00000-0  28439-2 0  9994
2 38606  48.1130 216.1406 6523270  50.5061 351.0977  3.07657732173692
Epoch: 2026-06-16T09:44Z
TLE epoch observation values (Epoch: 2026-06-16T09:44:31.785Z)
Latitude
-0.00017°
Longitude
165.34626°
Altitude
1,712.512 km
Speed
8.865 km/s
True Right ascension
14h 24m 37s
True Declination
0° 00' 01"
Sunlit
Object was in daylight at epoch
Visualization orbit readout
Latitude
Unknown
Longitude
Unknown
Altitude
Unknown
Speed
Unknown
Apparent Right ascension
Unknown
Apparent Declination
Unknown
Sunlit
N/A
Visualization observer readout
Local Sidereal Time
08:12:02
Azimuth
Unknown
Elevation
Unknown
Doppler factor
Unknown
Orbital elements
Apogee altitude
26,618.636 km
Perigee altitude
564.851 km
Semi-major axis
19,969.88 km
Eccentricity
0.65233
Inclination
48.113°
RAAN
216.1406°
Arg. of periapsis
50.5061°
True anomaly
309.79306°
Mean anomaly
351.0977°
Eccentric anomaly
335.74221°
Mean motion
0.76909 °/min
Orbital period
468.08 mins
BSTAR
0.0028439
Loading maneuver chart data...
Computing Atmospheric mass density...
Loading historical data...
Loading historical data...
Loading historical data...
Loading historical data...
Loading historical data...
Loading historical data...
Loading historical data...

Documentation

Showing up to 5 results
|